Regional Weather Roundup
Issued by NWS Newport/Morehead, NC

Current Version | Previous Version | Graphics & Text | Print | Product List | Glossary On
Versions: 1 2 3 4 5 6 7 8 9 10 11 12 13 14 15 16 17 18 19 20 21 22 23 24 25 26 27 28 29 30 31 32 33 34 35 36 37 38 39 40 41 42 43 44 45 46 47 48 49 50
000 ASUS42 KMHX 011113 RWRMHX WEATHER ROUNDUP FOR EASTERN NORTH CAROLINA NATIONAL WEATHER SERVICE NEWPORT/MOREHEAD CITY NC 700 AM EDT SAT OCT 01 2016 NOTE: "FAIR" INDICATES FEW OR NO CLOUDS BELOW 12,000 FEET WITH NO SIGNIFICANT WEATHER AND/OR OBSTRUCTIONS TO VISIBILITY NCZ015>017-031-032-045>047-102-103-011200- NORTH COAST CITY SKY/WX TMP DP RH WIND PRES REMARKS EDENTON CLOUDY 76 76 100 S8 30.06R ELIZABETH CITY MOCLDY 75 74 96 S5 30.06R KITTY HAWK CLOUDY 77 77 99 S5 30.05R MANTEO NOT AVBL $$ NCZ045>047-081-094-103-104-011200- CENTRAL COAST CITY SKY/WX TMP DP RH WIND PRES REMARKS FRISCO CLOUDY 79 75 87 S8 30.08R $$ NCZ095-097-098-100-101-011200- SOUTHERN COAST CITY SKY/WX TMP DP RH WIND PRES REMARKS BEAUFORT CLOUDY 76 73 91 S13 30.05R CEDAR ISLAND NOT AVBL JACKSONVILLE CLOUDY 73 71 93 SW3 30.05R PINEY ISLAND LGT RAIN N/A N/A N/A SW3 30.06R WILMINGTON CLOUDY 69 68 96 CALM 30.06S FOG $$ NCZ011>013-027>030-043-044-078>080-089-090>093-098-011200- COASTAL PLAIN CITY SKY/WX TMP DP RH WIND PRES REMARKS AHOSKIE CLOUDY 71 71 99 CALM 30.05S FOG CLINTON FOG 64 64 100 CALM 30.06S VSB 1/2 ELIZABETHTOWN PTCLDY 63 63 100 CALM 30.06R GOLDSBORO CLOUDY 69 69 100 W1 30.05R GREENVILLE MOCLDY 72 72 100 CALM 30.07R HAVELOCK CLOUDY 72 70 93 SW6 30.07R KENANSVILLE FOG 63 63 100 CALM 30.07R VSB 1/2 KINSTON FOG 70 70 100 CALM 30.07R VSB 1 NEW BERN CLOUDY 72 70 93 SW5 30.07R RICHLANDS MOCLDY 72 72 100 CALM 30.07R FOG ROCKY MOUNT FOG 68 68 100 CALM 30.06R VSB 1/4 WASHINGTON CLOUDY 71 70 97 SE3 30.05R WHITEVILLE NOT AVBL $$ AMZ130-135-150-152-154-156-158-170-250-252-270-ANZ085-086-088-633-658-670-011200- MARINE OBSERVATIONS STATION/POSITION TIME TEMP WIND PRES WAVE SWELL AIR SEA DIR/SP/G HT/PER HT/PER (UTC) (F) (DEG/KT/KT) (MB) (FT/S) (FT/S) CHESAPEAKE LIGHT NOT AVBL 64 E VA BEACH 1050 74 73 100/ 8/ 10 1018.3 6/10 7/10 DUCK 1042 78 76 170/ 8/ 9 1017.3 2 E DUCK 1041 76 N/A 5/10 2/11 OREGON INLET 1042 78 78 190/ 12/ 16 1018.0 13E OREGON INLT 1030 76 N/A 6/10 5/10 HATTERAS CG 1042 78 79 180/ 5/ 9 1018.1 DIAMOND BUOY 1050 80 83 200/ 17/ 21 1018.1 6/11 5/11 CAPE LOOKOUT 1100 75 210/ 12/ 15 1017.5 BEAUFORT LAB 1048 76 76 190/ 17/ 19 1016.8 30 SE NEW RVR IN 1008 77 82 160/ 10/ 14 1018.0 30 SE NEW RVR IN 1025 82 N/A 5/ 5 2/12 27 SE WRIGHTSVLE 1008 78 81 170/ 12/ 17 1017.9 5 SE WRIGHTSVLE 1008 78 80 300/ 2/ 6 1018.6 225 S CAPE HAT 1050 82 83 130/ 12/ 16 1018.4 7/11 7/11 41 SE CHARLESTON 1050 77 82 10/ 12/ 16 1016.7 2/10 2/10 $$

USA.gov is the U.S. government's official web portal to all federal, state and local government web resources and services.